Killeen, TX

3:15 PM CDT on September 25, 2016 (GMT -0500)
Hood Army Air Field

Weather History for KHLR - December, 2013

Change the Weather History Date:

Wednesday, December 11, 2013

  Actual Average Record
Temperature  
Mean Temperature 42 °F -  
Max Temperature 55 °F 60 °F 86 °F (1996)
Min Temperature 28 °F 40 °F 26 °F (2000)
Degree Days  
Heating Degree Days 24    
Moisture  
Dew Point 25 °F    
Average Humidity 56    
Maximum Humidity 78    
Minimum Humidity 30    
Precipitation  
Precipitation 0.00 in - - ()
Sea Level Pressure  
Sea Level Pressure 30.53 in    
Wind  
Wind Speed 2 mph (NNW)    
Max Wind Speed 9 mph    
Max Gust Speed -    
Visibility 10 miles    
Events      
Averages and records for this station are not official NWS values.
T = Trace of Precipitation, MM = Missing Value Source: NWS Daily Summary

Daily Weather History Graph

Daily Weather History Graph

Search for Another Location

Airport or City:

Trip Planner

Search our weather history database for the weather conditions in past years. The results will help you decide how hot, cold, wet, or windy it might be!

Date:

Astronomy

Dec. 11, 2013 Rise Set
Actual Time 7:19 AM CST 5:29 PM CST
Civil Twilight 6:52 AM CST 5:55 PM CST
Nautical Twilight 6:22 AM CST 6:25 PM CST
Astronomical Twilight 5:53 AM CST 6:55 PM CST
Moon 1:48 PM CST (12/11) 1:59 AM CST (12/11)
Length of Visible Light 11h 03m
Length of Day
10h 09m
Waxing Gibbous, 72% of the Moon is Illuminated
Dec 11
Waxing Gibbous
Dec 17
Full
Dec 25
Last Quarter
Jan 1
New
Jan 7
First Quarter

Hourly Weather History & Observations

Time (CST) Temp. Windchill Dew Point Humidity Pressure Visibility Wind Dir Wind Speed Gust Speed Precip Events Conditions
12:56 AM 30.0 °F - 23.0 °F 75% 30.46 in 10.0 mi Calm Calm - N/A   Clear
1:56 AM 28.9 °F - 23.0 °F 78% 30.45 in 10.0 mi Calm Calm - N/A   Clear
2:56 AM 30.0 °F - 21.9 °F 72% 30.44 in 10.0 mi Calm Calm - N/A   Clear
3:56 AM 28.9 °F 22.8 °F 23.0 °F 78% 30.44 in 10.0 mi South 5.8 mph - N/A   Clear
4:56 AM 28.0 °F - 21.9 °F 78% 30.43 in 10.0 mi Calm Calm - N/A   Clear
5:56 AM 30.0 °F - 23.0 °F 75% 30.45 in 10.0 mi Calm Calm - N/A   Clear
6:56 AM 30.0 °F - 23.0 °F 75% 30.48 in 10.0 mi Calm Calm - N/A   Clear
7:56 AM 30.9 °F - 23.0 °F 72% 30.50 in 10.0 mi Calm Calm - N/A   Clear
8:56 AM 37.9 °F 34.4 °F 25.0 °F 60% 30.49 in 10.0 mi South 4.6 mph - N/A   Clear
9:56 AM 43.0 °F 41.3 °F 24.1 °F 47% 30.53 in 10.0 mi Variable 3.5 mph - N/A   Clear
10:56 AM 46.9 °F - 23.0 °F 39% 30.54 in 10.0 mi Calm Calm - N/A   Clear
11:56 AM 51.1 °F - 25.0 °F 36% 30.52 in 10.0 mi Calm Calm - N/A   Clear
12:56 PM 53.1 °F - 25.0 °F 34% 30.49 in 10.0 mi NW 4.6 mph - N/A   Clear
1:56 PM 55.9 °F - 25.0 °F 30% 30.48 in 10.0 mi North 3.5 mph - N/A   Clear
2:56 PM 55.9 °F - 26.1 °F 32% 30.49 in 10.0 mi Calm Calm - N/A   Clear
3:56 PM 55.9 °F - 26.1 °F 32% 30.51 in 10.0 mi North 5.8 mph - N/A   Clear
4:56 PM 53.1 °F - 27.0 °F 37% 30.53 in 10.0 mi North 4.6 mph - N/A   Clear
5:56 PM 51.1 °F - 27.0 °F 39% 30.56 in 10.0 mi NNW 6.9 mph - N/A   Clear
6:56 PM 46.9 °F - 30.0 °F 52% 30.60 in 10.0 mi North 8.1 mph - N/A   Clear
7:56 PM 45.0 °F 40.1 °F 30.0 °F 56% 30.64 in 10.0 mi NNW 9.2 mph - N/A   Clear
8:56 PM 42.1 °F 36.6 °F 27.0 °F 55% 30.66 in 10.0 mi NNW 9.2 mph - N/A   Clear
9:56 PM 39.0 °F 34.0 °F 27.0 °F 62% 30.66 in 10.0 mi NNW 6.9 mph - N/A   Clear
10:56 PM 37.0 °F 32.4 °F 27.0 °F 67% 30.68 in 10.0 mi WNW 5.8 mph - N/A   Clear
11:56 PM 36.0 °F 30.3 °F 26.1 °F 67% 30.67 in 10.0 mi NW 6.9 mph - N/A   Clear